Location: Doschendorf
(50.0069°N, 11.0602°E)
Time: 20:56:27
(UTC+00:00)

Lacrosse 4 Rocket - Pass Details

Date: 17 November 2019
Orbit: 543 x 616 km, 68.0° (Epoch: 06 December)

Event Time Altitude Azimuth Distance (km) Brightness Sun altitude
Rises 16:51:59 0° 196° (SSW) 2,712 5.3 -13.1°
Reaches altitude 10° 16:54:14 10° 191° (S) 1,816 4.3 -13.4°
Maximum altitude 16:58:07 46° 117° (ESE) 739 1.6 -14.1°
Enters shadow 17:00:16 23° 56° (NE) 1,185 2.5 -14.4°
